AXB1523 VEBD-VIDP

Flight info

Callsign AXB1523
Flight time 1h 52m
Altitude 34000
Route BGD Q18 LOTPU Z2 JAL JAL6Q
Aircraft B38M/M-SDE1FGHILORVWXY/HB1

Departure

Time 2026-05-04 07:15
Airport Bagdogra Airport (VEBD)

Arrival

Time 2026-05-04 09:07
Airport Indira Gandhi International Airport (VIDP)
Time Latitude Longitude Altitude Speed Heading
2026-05-04 06:40 26.68369 88.32621 421 ft 0 kts 227°
2026-05-04 07:08 26.68352 88.32617 413 ft 0 kts 141°
2026-05-04 07:09 26.68351 88.32621 414 ft 2 kts 110°
2026-05-04 07:09 26.68354 88.32648 419 ft 5 kts 73°
2026-05-04 07:09 26.68391 88.32666 418 ft 7 kts
2026-05-04 07:09 26.68448 88.32670 414 ft 10 kts
2026-05-04 07:10 26.68521 88.32673 416 ft 10 kts
2026-05-04 07:10 26.68545 88.32705 413 ft 0 kts 89°
2026-05-04 07:12 26.68841 88.32827 418 ft 21 kts
2026-05-04 07:12 26.68980 88.32831 425 ft 19 kts
2026-05-04 07:12 26.69115 88.32836 428 ft 20 kts
2026-05-04 07:12 26.69258 88.32841 425 ft 21 kts
2026-05-04 07:13 26.69364 88.32847 431 ft 6 kts 24°
2026-05-04 07:13 26.69372 88.32856 427 ft 0 kts 69°
2026-05-04 07:13 26.69372 88.32858 435 ft 1 kts 79°
2026-05-04 07:14 26.69346 88.32847 428 ft 0 kts 189°
2026-05-04 07:14 26.69299 88.32841 434 ft 17 kts 183°
2026-05-04 07:15 26.68910 88.32830 424 ft 95 kts 182°
2026-05-04 07:15 26.68354 88.32811 411 ft 141 kts 182°
2026-05-04 07:15 26.67214 88.32772 567 ft 182 kts 182°
2026-05-04 07:15 26.65917 88.32664 1367 ft 185 kts 182°
2026-05-04 07:16 26.64669 88.32558 2372 ft 184 kts 182°
2026-05-04 07:16 26.63378 88.32040 2705 ft 216 kts 213°
2026-05-04 07:16 26.62164 88.30886 3055 ft 241 kts 220°
2026-05-04 07:16 26.60887 88.29558 3504 ft 260 kts 221°
2026-05-04 07:17 26.59511 88.28137 4028 ft 275 kts 221°
2026-05-04 07:17 26.58091 88.26677 4846 ft 277 kts 221°
2026-05-04 07:17 26.56678 88.25222 5551 ft 283 kts 221°
2026-05-04 07:17 26.55214 88.23720 6342 ft 286 kts 221°
2026-05-04 07:18 26.53738 88.22209 7054 ft 288 kts 220°
2026-05-04 07:18 26.52124 88.20884 7792 ft 289 kts 209°
2026-05-04 07:18 26.50376 88.19801 8511 ft 291 kts 208°
2026-05-04 07:18 26.48598 88.18691 9240 ft 293 kts 210°
2026-05-04 07:19 26.46808 88.17561 9972 ft 296 kts 210°
2026-05-04 07:19 26.44983 88.16400 10390 ft 310 kts 211°
2026-05-04 07:19 26.43046 88.15162 10642 ft 328 kts 211°
2026-05-04 07:19 26.41021 88.13868 11025 ft 340 kts 212°
2026-05-04 07:20 26.38963 88.12553 11715 ft 341 kts 212°
2026-05-04 07:20 26.36919 88.11245 12374 ft 345 kts 212°
2026-05-04 07:20 26.34822 88.09905 13090 ft 348 kts 212°
2026-05-04 07:20 26.32709 88.08554 13808 ft 351 kts 212°
2026-05-04 07:22 26.17573 87.98899 18333 ft 366 kts 213°
2026-05-04 07:22 26.15348 87.97481 18842 ft 369 kts 213°
2026-05-04 07:23 26.13127 87.96031 19337 ft 369 kts 218°
2026-05-04 07:23 26.11268 87.94074 19827 ft 366 kts 236°
2026-05-04 07:23 26.10078 87.91613 20280 ft 367 kts 252°
2026-05-04 07:23 26.09425 87.88855 20746 ft 369 kts 257°
2026-05-04 07:24 26.08864 87.86055 21227 ft 372 kts 258°
2026-05-04 07:24 26.08338 87.83226 21718 ft 374 kts 259°
2026-05-04 07:24 26.07834 87.80407 22191 ft 377 kts 259°
2026-05-04 07:24 26.07333 87.77532 22689 ft 379 kts 259°
2026-05-04 07:25 26.06837 87.74643 23160 ft 382 kts 259°
2026-05-04 07:26 26.03309 87.54006 26130 ft 393 kts 259°
2026-05-04 07:27 26.02796 87.51018 26541 ft 394 kts 258°
2026-05-04 07:27 26.02285 87.48047 26934 ft 396 kts 258°
2026-05-04 07:27 26.01768 87.45038 27324 ft 397 kts 258°
2026-05-04 07:27 26.01246 87.42011 27705 ft 399 kts 258°
2026-05-04 07:28 26.00718 87.38960 28084 ft 400 kts 258°
2026-05-04 07:28 26.00196 87.35954 28456 ft 401 kts 258°
2026-05-04 07:28 25.99667 87.32903 28822 ft 403 kts 258°
2026-05-04 07:28 25.99127 87.29798 29175 ft 404 kts 258°
2026-05-04 07:29 25.98597 87.26753 29517 ft 406 kts 258°
2026-05-04 07:29 25.98059 87.23662 29852 ft 407 kts 258°
2026-05-04 07:29 25.97518 87.20561 30148 ft 409 kts 258°
2026-05-04 07:29 25.97086 87.17464 30406 ft 412 kts 266°
2026-05-04 07:30 25.97380 87.14274 30722 ft 417 kts 279°
2026-05-04 07:30 25.98079 87.11137 30986 ft 419 kts 280°
2026-05-04 07:30 25.98797 87.07990 31219 ft 421 kts 280°
2026-05-04 07:30 25.99539 87.04842 31491 ft 422 kts 280°
2026-05-04 07:31 26.00298 87.01677 31744 ft 424 kts 281°
2026-05-04 07:31 26.01067 86.98504 31998 ft 425 kts 281°
2026-05-04 07:33 26.06411 86.76488 33890 ft 419 kts 280°
2026-05-04 07:33 26.07163 86.73374 33887 ft 417 kts 279°
2026-05-04 07:33 26.08663 86.67164 33887 ft 417 kts 279°
2026-05-04 07:34 26.10163 86.60938 33885 ft 416 kts 279°
2026-05-04 07:34 26.11658 86.54718 33883 ft 416 kts 279°
2026-05-04 07:35 26.13155 86.48479 33885 ft 416 kts 279°
2026-05-04 07:35 26.14636 86.42292 33888 ft 415 kts 279°
2026-05-04 07:36 26.16123 86.36072 33888 ft 415 kts 279°
2026-05-04 07:38 26.22028 86.11234 33888 ft 414 kts 279°
2026-05-04 07:38 26.23488 86.05058 33893 ft 414 kts 279°
2026-05-04 07:39 26.24959 85.98828 33893 ft 414 kts 279°
2026-05-04 07:39 26.26410 85.92665 33900 ft 414 kts 279°
2026-05-04 07:40 26.27870 85.86454 33899 ft 414 kts 279°
2026-05-04 07:40 26.29330 85.80231 33901 ft 414 kts 279°
2026-05-04 07:41 26.30779 85.74046 33901 ft 414 kts 279°
2026-05-04 07:41 26.32230 85.67838 33901 ft 414 kts 279°
2026-05-04 07:42 26.33789 85.61683 33906 ft 415 kts 281°
2026-05-04 07:42 26.35389 85.55489 33899 ft 415 kts 281°
2026-05-04 07:43 26.36984 85.49286 33906 ft 415 kts 281°
2026-05-04 07:43 26.38565 85.43127 33906 ft 415 kts 281°
2026-05-04 07:44 26.40153 85.36929 33905 ft 415 kts 281°
2026-05-04 07:44 26.41740 85.30719 33909 ft 415 kts 281°
2026-05-04 07:45 26.43323 85.24514 33907 ft 415 kts 281°
2026-05-04 07:45 26.44895 85.18344 33905 ft 415 kts 281°
2026-05-04 07:46 26.46463 85.12171 33911 ft 415 kts 281°
2026-05-04 07:46 26.48037 85.05969 33916 ft 414 kts 281°
2026-05-04 07:47 26.49607 84.99767 33901 ft 414 kts 281°
2026-05-04 07:49 26.55837 84.75035 33897 ft 414 kts 281°
2026-05-04 07:49 26.57392 84.68829 33895 ft 414 kts 281°
2026-05-04 07:50 26.58934 84.62668 33895 ft 414 kts 281°
2026-05-04 07:50 26.60488 84.56444 33891 ft 414 kts 281°
2026-05-04 07:51 26.62025 84.50274 33887 ft 414 kts 281°
2026-05-04 07:51 26.63572 84.44055 33886 ft 415 kts 281°
2026-05-04 07:52 26.65116 84.37837 33888 ft 416 kts 281°
2026-05-04 07:52 26.66693 84.31623 33880 ft 417 kts 282°
2026-05-04 07:54 26.73040 84.06551 33861 ft 420 kts 282°
2026-05-04 07:55 26.74618 84.00288 33858 ft 421 kts 282°
2026-05-04 07:55 26.76211 83.93948 33861 ft 422 kts 282°
2026-05-04 07:56 26.77712 83.87628 33860 ft 422 kts 281°
2026-05-04 07:56 26.79186 83.81240 33855 ft 423 kts 281°
2026-05-04 07:57 26.80654 83.74882 33851 ft 424 kts 281°
2026-05-04 07:57 26.82135 83.68456 33864 ft 425 kts 281°
2026-05-04 07:58 26.83604 83.62066 33860 ft 425 kts 281°
2026-05-04 07:58 26.85079 83.55638 33857 ft 426 kts 281°
2026-05-04 07:59 26.86549 83.49217 33857 ft 427 kts 281°
2026-05-04 07:59 26.88028 83.42740 33861 ft 429 kts 281°
2026-05-04 08:00 26.89254 83.37361 33862 ft 429 kts 281°
2026-05-04 08:02 26.95165 83.11284 35674 ft 432 kts 280°
2026-05-04 08:02 26.95893 83.08057 35931 ft 431 kts 280°
2026-05-04 08:02 26.96631 83.04784 36197 ft 431 kts 279°
2026-05-04 08:03 26.97368 83.01513 36460 ft 431 kts 279°
2026-05-04 08:03 26.98071 82.98294 36706 ft 430 kts 279°
2026-05-04 08:03 26.98777 82.95034 36976 ft 429 kts 279°
2026-05-04 08:03 26.99479 82.91795 37234 ft 429 kts 278°
2026-05-04 08:04 27.00185 82.88540 37508 ft 428 kts 278°
2026-05-04 08:04 27.00887 82.85298 37761 ft 427 kts 278°
2026-05-04 08:04 27.01579 82.82099 37925 ft 426 kts 278°
2026-05-04 08:04 27.02276 82.78873 37908 ft 424 kts 278°
2026-05-04 08:05 27.03661 82.72450 37912 ft 422 kts 278°
2026-05-04 08:05 27.05032 82.66080 37911 ft 421 kts 278°
2026-05-04 08:06 27.06404 82.59691 37914 ft 420 kts 277°
2026-05-04 08:06 27.07770 82.53312 37919 ft 420 kts 277°
2026-05-04 08:08 27.13174 82.27933 37921 ft 418 kts 277°
2026-05-04 08:11 27.19419 81.99349 37930 ft 419 kts 278°
2026-05-04 08:11 27.21508 81.89808 37925 ft 421 kts 278°
2026-05-04 08:12 27.22905 81.83412 37922 ft 421 kts 278°
2026-05-04 08:12 27.24291 81.77047 37918 ft 422 kts 277°
2026-05-04 08:13 27.25689 81.70617 37912 ft 422 kts 277°
2026-05-04 08:13 27.27076 81.64220 37905 ft 423 kts 277°
2026-05-04 08:14 27.28471 81.57773 37904 ft 423 kts 277°
2026-05-04 08:16 27.33993 81.32092 37885 ft 422 kts 277°
2026-05-04 08:16 27.35370 81.25654 37875 ft 422 kts 277°
2026-05-04 08:17 27.36730 81.19275 37870 ft 421 kts 276°
2026-05-04 08:17 27.38096 81.12856 37869 ft 421 kts 276°
2026-05-04 08:19 27.43493 80.87333 37854 ft 418 kts 276°
2026-05-04 08:20 27.44835 80.80952 37857 ft 418 kts 276°
2026-05-04 08:20 27.46170 80.74585 37857 ft 417 kts 276°
2026-05-04 08:21 27.47493 80.68262 37847 ft 416 kts 276°
2026-05-04 08:21 27.48822 80.61900 37853 ft 417 kts 276°
2026-05-04 08:22 27.50151 80.55533 37862 ft 417 kts 276°
2026-05-04 08:24 27.55649 80.30190 37849 ft 417 kts 277°
2026-05-04 08:24 27.57018 80.23842 37848 ft 416 kts 277°
2026-05-04 08:25 27.58385 80.17487 37848 ft 416 kts 277°
2026-05-04 08:25 27.59740 80.11174 37847 ft 416 kts 277°
2026-05-04 08:27 27.65160 79.85764 37846 ft 416 kts 276°
2026-05-04 08:28 27.66501 79.79442 37845 ft 416 kts 276°
2026-05-04 08:28 27.67848 79.73076 37831 ft 416 kts 276°
2026-05-04 08:29 27.69196 79.66705 37839 ft 417 kts 277°
2026-05-04 08:31 27.78074 79.42032 37838 ft 425 kts 285°
2026-05-04 08:33 27.87078 79.17353 37845 ft 425 kts 284°
2026-05-04 08:35 27.96031 78.92656 37843 ft 424 kts 285°
2026-05-04 08:35 27.98249 78.86512 37846 ft 424 kts 285°
2026-05-04 08:37 28.06033 78.64869 37841 ft 424 kts 285°
2026-05-04 08:38 28.08259 78.58657 37841 ft 424 kts 285°
2026-05-04 08:38 28.10462 78.52499 37841 ft 424 kts 285°
2026-05-04 08:40 28.18093 78.31094 34286 ft 425 kts 287°
2026-05-04 08:40 28.19199 78.27979 33764 ft 427 kts 288°
2026-05-04 08:40 28.20314 78.24836 33144 ft 428 kts 288°
2026-05-04 08:41 28.21408 78.21750 32594 ft 426 kts 288°
2026-05-04 08:41 28.22509 78.18640 32068 ft 422 kts 288°
2026-05-04 08:41 28.23603 78.15550 31528 ft 419 kts 288°
2026-05-04 08:41 28.24682 78.12500 31009 ft 416 kts 288°
2026-05-04 08:42 28.25759 78.09453 30486 ft 414 kts 288°
2026-05-04 08:42 28.26815 78.06465 29978 ft 412 kts 288°
2026-05-04 08:42 28.27877 78.03453 29379 ft 410 kts 288°
2026-05-04 08:42 28.28931 78.00465 28839 ft 406 kts 288°
2026-05-04 08:43 28.29980 77.97487 28338 ft 402 kts 288°
2026-05-04 08:43 28.31014 77.94549 27863 ft 398 kts 288°
2026-05-04 08:43 28.32024 77.91678 27377 ft 395 kts 288°
2026-05-04 08:43 28.33041 77.88786 26893 ft 392 kts 288°
2026-05-04 08:44 28.34045 77.85926 26421 ft 389 kts 288°
2026-05-04 08:44 28.35044 77.83082 25956 ft 386 kts 288°
2026-05-04 08:46 28.39338 77.63880 23769 ft 343 kts 269°
2026-05-04 08:46 28.39353 77.62086 23539 ft 342 kts 269°
2026-05-04 08:46 28.39374 77.58519 23008 ft 339 kts 269°
2026-05-04 08:46 28.39384 77.55851 22632 ft 335 kts 269°
2026-05-04 08:47 28.39389 77.54107 22401 ft 333 kts 269°
2026-05-04 08:47 28.39395 77.51485 22059 ft 329 kts 269°
2026-05-04 08:47 28.39401 77.48890 21720 ft 325 kts 269°
2026-05-04 08:47 28.39406 77.46357 21392 ft 322 kts 269°
2026-05-04 08:48 28.39411 77.43824 21065 ft 318 kts 269°
2026-05-04 08:48 28.39415 77.41325 20744 ft 315 kts 269°
2026-05-04 08:48 28.39418 77.38852 20508 ft 308 kts 269°
2026-05-04 08:48 28.39421 77.36485 20375 ft 299 kts 269°
2026-05-04 08:49 28.39423 77.34150 20230 ft 291 kts 269°
2026-05-04 08:50 28.41672 77.21228 18819 ft 263 kts 281°
2026-05-04 08:50 28.42103 77.19240 18681 ft 254 kts 281°
2026-05-04 08:51 28.42523 77.17296 18449 ft 256 kts 281°
2026-05-04 08:51 28.42950 77.15322 18146 ft 258 kts 281°
2026-05-04 08:51 28.43378 77.13342 17830 ft 258 kts 281°
2026-05-04 08:51 28.43803 77.11377 17520 ft 258 kts 281°
2026-05-04 08:52 28.44231 77.09390 17232 ft 259 kts 281°
2026-05-04 08:52 28.44660 77.07402 16938 ft 259 kts 281°
2026-05-04 08:52 28.45088 77.05416 16642 ft 259 kts 281°
2026-05-04 08:52 28.45520 77.03415 16300 ft 259 kts 281°
2026-05-04 08:53 28.45946 77.01435 16010 ft 257 kts 281°
2026-05-04 08:54 28.48927 76.87282 12530 ft 269 kts 275°
2026-05-04 08:55 28.49102 76.85157 11947 ft 269 kts 272°
2026-05-04 08:55 28.49241 76.83007 11268 ft 275 kts 272°
2026-05-04 08:55 28.49377 76.80820 10583 ft 279 kts 272°
2026-05-04 08:55 28.49515 76.78614 9914 ft 283 kts 272°
2026-05-04 08:57 28.51707 76.64011 6466 ft 273 kts 324°
2026-05-04 09:01 28.57611 76.84249 2962 ft 202 kts 93°
2026-05-04 09:01 28.57576 76.85795 2946 ft 190 kts 92°
2026-05-04 09:01 28.57574 76.87332 2577 ft 197 kts 90°
2026-05-04 09:01 28.57648 76.88824 2499 ft 188 kts 87°
2026-05-04 09:02 28.57678 76.90318 2190 ft 191 kts 90°
2026-05-04 09:02 28.57596 76.91773 2264 ft 179 kts 98°
2026-05-04 09:02 28.57461 76.93185 2439 ft 178 kts 96°
2026-05-04 09:02 28.57383 76.94589 2594 ft 177 kts 92°
2026-05-04 09:03 28.57343 76.95997 2757 ft 178 kts 91°
2026-05-04 09:03 28.57314 76.97404 2647 ft 180 kts 92°
2026-05-04 09:03 28.57282 76.98797 2432 ft 168 kts 92°
2026-05-04 09:03 28.57253 77.00060 2252 ft 156 kts 91°
2026-05-04 09:04 28.57225 77.01280 2059 ft 151 kts 92°
2026-05-04 09:04 28.57200 77.02403 1915 ft 138 kts 91°
2026-05-04 09:04 28.57176 77.03471 1740 ft 131 kts 92°
2026-05-04 09:04 28.57151 77.04508 1523 ft 134 kts 92°
2026-05-04 09:05 28.57128 77.05584 1381 ft 135 kts 93°
2026-05-04 09:05 28.57103 77.06632 1146 ft 131 kts 91°
2026-05-04 09:05 28.57079 77.07676 1019 ft 133 kts 91°
2026-05-04 09:05 28.57055 77.08727 852 ft 132 kts 92°
2026-05-04 09:06 28.57034 77.09708 776 ft 108 kts 92°
2026-05-04 09:07 28.56840 77.11615 776 ft 9 kts 268°
2026-05-04 09:08 28.56841 77.11535 776 ft 11 kts 272°
2026-05-04 09:08 28.56844 77.11435 776 ft 14 kts 272°
2026-05-04 09:08 28.56845 77.11317 763 ft 16 kts 270°
2026-05-04 09:08 28.56812 77.11193 776 ft 18 kts 230°
2026-05-04 09:09 28.56777 77.11092 776 ft 0 kts 270°
2026-05-04 09:09 28.56778 77.11080 776 ft 3 kts 270°
2026-05-04 09:09 28.56778 77.11045 776 ft 6 kts 271°
2026-05-04 09:09 28.56779 77.10988 776 ft 9 kts 270°
2026-05-04 09:10 28.56782 77.10910 776 ft 11 kts 273°
2026-05-04 09:10 28.56781 77.10818 776 ft 10 kts 253°
2026-05-04 09:10 28.56733 77.10818 776 ft 9 kts 145°
2026-05-04 09:10 28.56675 77.10861 776 ft 11 kts 148°
2026-05-04 09:11 28.56617 77.10902 776 ft 10 kts 148°
2026-05-04 09:11 28.56602 77.10917 776 ft 1 kts 115°
2026-05-04 09:11 28.56602 77.10927 776 ft 1 kts 78°
2026-05-04 09:11 28.56608 77.10942 776 ft 3 kts 61°
2026-05-04 09:12 28.56614 77.10953 776 ft 0 kts 58°